When you browse on this site, cookies collect data to enhance your experience and personalize the content and advertising you see.
Visit our Privacy Policy to learn more. By continuing to use the site, you agree to this use of cookies and data.
  • In United Kingdom
  • List of Countries
  • For 7 days
  • Water Temperature
  • Satellite Maps
  • Weather Map
  • Weather Widgets
  • user-avatar
    Login

    Hourly Weather Heredia

    Today, 19 April, Friday

    Time Temperature Precipitation Wind Pressure Humidity
    00:00 +19°C° 0 mm 0 mps 662 mmHg 93%
    01:00 +19°C° 0 mm 0 mps 661 mmHg 93%
    02:00 +19°C° 0 mm 0 mps 661 mmHg 93%
    03:00 +18°C° 0 mm 0 mps 661 mmHg 93%
    04:00 +19°C° 0 mm 0 mps 661 mmHg 92%
    05:00 +21°C° 0 mm 1 mps 661 mmHg 91%
    06:00 +21°C° 0 mm 1 mps 661 mmHg 90%
    07:00 +22°C° 0 mm 1 mps 662 mmHg 82%
    08:00 +24°C° 0 mm 1 mps 663 mmHg 75%
    09:00 +26°C° 0 mm 1 mps 664 mmHg 68%
    10:00 +27°C° 0.1 mm 1 mps 664 mmHg 65%
    11:00 +28°C° 0.1 mm 1 mps 664 mmHg 61%
    12:00 +29°C° 0.1 mm 1 mps 664 mmHg 58%
    13:00 +27°C° 0.5 mm 1 mps 663 mmHg 67%
    14:00 +25°C° 0.5 mm 1 mps 662 mmHg 75%
    15:00 +23°C° 0.5 mm 1 mps 661 mmHg 84%
    16:00 +23°C° 0.8 mm 1 mps 661 mmHg 86%
    17:00 +22°C° 0.8 mm 1 mps 661 mmHg 89%
    18:00 +22°C° 0.8 mm 1 mps 661 mmHg 92%
    19:00 +22°C° 0.2 mm 1 mps 662 mmHg 92%
    20:00 +22°C° 0.2 mm 1 mps 662 mmHg 92%
    21:00 +21°C° 0.2 mm 1 mps 663 mmHg 92%
    22:00 +21°C° 0 mm 1 mps 663 mmHg 93%
    23:00 +21°C° 0 mm 1 mps 663 mmHg 93%

    Tomorrow, 20 April, Saturday

    Time Temperature Precipitation Wind Pressure Humidity
    00:00 +21°C° 0 mm 1 mps 663 mmHg 93%
    01:00 +20°C° 0 mm 1 mps 662 mmHg 92%
    02:00 +20°C° 0 mm 1 mps 662 mmHg 91%
    03:00 +20°C° 0 mm 1 mps 661 mmHg 90%
    04:00 +20°C° 0 mm 1 mps 662 mmHg 88%
    05:00 +19°C° 0 mm 1 mps 662 mmHg 86%
    06:00 +18°C° 0 mm 2 mps 662 mmHg 83%
    07:00 +20°C° 0 mm 2 mps 663 mmHg 72%
    08:00 +23°C° 0 mm 2 mps 664 mmHg 61%
    09:00 +25°C° 0 mm 3 mps 665 mmHg 50%
    10:00 +26°C° 0 mm 3 mps 665 mmHg 47%
    11:00 +27°C° 0 mm 3 mps 665 mmHg 44%
    12:00 +28°C° 0 mm 3 mps 665 mmHg 41%
    13:00 +28°C° 0 mm 3 mps 664 mmHg 41%
    14:00 +28°C° 0 mm 2 mps 663 mmHg 42%
    15:00 +28°C° 0 mm 2 mps 663 mmHg 42%
    16:00 +26°C° 0 mm 2 mps 663 mmHg 52%
    17:00 +23°C° 0 mm 2 mps 662 mmHg 62%
    18:00 +21°C° 0 mm 1 mps 662 mmHg 71%
    19:00 +21°C° 0 mm 1 mps 663 mmHg 75%
    20:00 +19°C° 0 mm 2 mps 663 mmHg 79%
    21:00 +18°C° 0 mm 2 mps 663 mmHg 83%
    22:00 +18°C° 0 mm 2 mps 663 mmHg 77%
    23:00 +18°C° 0 mm 2 mps 663 mmHg 72%

    Day after tomorrow, 21 April, Sunday

    Time Temperature Precipitation Wind Pressure Humidity
    00:00 +17°C° 0 mm 2 mps 663 mmHg 67%
    01:00 +17°C° 0 mm 2 mps 662 mmHg 65%
    02:00 +17°C° 0 mm 2 mps 662 mmHg 62%
    03:00 +17°C° 0 mm 2 mps 661 mmHg 59%
    04:00 +17°C° 0 mm 2 mps 662 mmHg 64%
    05:00 +18°C° 0 mm 2 mps 662 mmHg 69%
    06:00 +18°C° 0 mm 2 mps 662 mmHg 73%
    07:00 +20°C° 0 mm 2 mps 663 mmHg 71%
    08:00 +21°C° 0 mm 2 mps 664 mmHg 68%
    09:00 +24°C° 0 mm 2 mps 665 mmHg 65%
    10:00 +26°C° 0 mm 2 mps 665 mmHg 61%
    11:00 +27°C° 0 mm 2 mps 665 mmHg 56%
    12:00 +29°C° 0 mm 2 mps 665 mmHg 51%
    13:00 +28°C° 0.1 mm 2 mps 664 mmHg 56%
    14:00 +27°C° 0.1 mm 2 mps 664 mmHg 61%
    15:00 +26°C° 0.1 mm 2 mps 663 mmHg 65%
    16:00 +24°C° 0.1 mm 1 mps 663 mmHg 72%
    17:00 +23°C° 0.1 mm 1 mps 663 mmHg 80%
    18:00 +22°C° 0.1 mm 1 mps 662 mmHg 87%
    19:00 +21°C° 0 mm 1 mps 663 mmHg 88%
    20:00 +21°C° 0 mm 1 mps 663 mmHg 88%
    21:00 +20°C° 0 mm 1 mps 664 mmHg 88%
    22:00 +20°C° 0 mm 1 mps 663 mmHg 88%
    23:00 +20°C° 0 mm 1 mps 663 mmHg 87%

    22 April, Monday

    Time Temperature Precipitation Wind Pressure Humidity
    00:00 +20°C° 0 mm 1 mps 663 mmHg 86%
    01:00 +20°C° 0 mm 1 mps 663 mmHg 85%
    02:00 +20°C° 0 mm 1 mps 662 mmHg 85%
    03:00 +20°C° 0 mm 1 mps 662 mmHg 85%
    04:00 +19°C° 0.1 mm 2 mps 662 mmHg 84%
    05:00 +19°C° 0.1 mm 2 mps 662 mmHg 84%
    06:00 +20°C° 0.1 mm 2 mps 663 mmHg 84%
    07:00 +21°C° 0 mm 2 mps 663 mmHg 76%
    08:00 +24°C° 0 mm 2 mps 664 mmHg 69%
    09:00 +26°C° 0 mm 2 mps 665 mmHg 61%
    10:00 +27°C° 0 mm 2 mps 665 mmHg 57%
    11:00 +28°C° 0 mm 2 mps 665 mmHg 52%
    12:00 +29°C° 0 mm 2 mps 664 mmHg 48%
    13:00 +28°C° 0.1 mm 2 mps 664 mmHg 53%
    14:00 +27°C° 0.1 mm 2 mps 663 mmHg 58%
    15:00 +26°C° 0.1 mm 2 mps 662 mmHg 63%
    16:00 +25°C° 0.1 mm 1 mps 662 mmHg 71%
    17:00 +23°C° 0.1 mm 1 mps 662 mmHg 78%
    18:00 +22°C° 0.1 mm 1 mps 662 mmHg 86%
    19:00 +22°C° 0 mm 1 mps 662 mmHg 86%
    20:00 +21°C° 0 mm 1 mps 663 mmHg 85%
    21:00 +21°C° 0 mm 1 mps 663 mmHg 85%
    22:00 +21°C° 0 mm 1 mps 663 mmHg 84%
    23:00 +20°C° 0 mm 1 mps 662 mmHg 84%

    23 April, Tuesday

    Time Temperature Precipitation Wind Pressure Humidity
    00:00 +20°C° 0 mm 1 mps 662 mmHg 83%
    01:00 +20°C° 0 mm 1 mps 661 mmHg 83%
    02:00 +19°C° 0 mm 1 mps 661 mmHg 83%
    03:00 +19°C° 0 mm 1 mps 661 mmHg 83%
    04:00 +19°C° 0 mm 1 mps 661 mmHg 82%
    05:00 +19°C° 0 mm 1 mps 661 mmHg 80%
    06:00 +19°C° 0 mm 1 mps 662 mmHg 79%
    07:00 +22°C° 0 mm 1 mps 663 mmHg 67%
    08:00 +25°C° 0 mm 2 mps 664 mmHg 56%
    09:00 +27°C° 0 mm 2 mps 665 mmHg 44%
    10:00 +29°C° 0 mm 2 mps 665 mmHg 41%
    11:00 +30°C° 0 mm 2 mps 665 mmHg 39%
    12:00 +31°C° 0 mm 2 mps 664 mmHg 36%
    13:00 +30°C° 0 mm 2 mps 664 mmHg 42%
    14:00 +30°C° 0 mm 2 mps 663 mmHg 47%
    15:00 +29°C° 0 mm 2 mps 662 mmHg 53%
    16:00 +26°C° 0.1 mm 1 mps 662 mmHg 63%
    17:00 +24°C° 0.1 mm 1 mps 662 mmHg 74%
    18:00 +22°C° 0.1 mm 1 mps 662 mmHg 84%
    19:00 +22°C° 0 mm 1 mps 662 mmHg 86%
    20:00 +21°C° 0 mm 1 mps 662 mmHg 88%
    21:00 +20°C° 0 mm 1 mps 662 mmHg 90%
    22:00 +20°C° 0 mm 1 mps 662 mmHg 87%
    23:00 +19°C° 0 mm 1 mps 662 mmHg 84%

    24 April, Wednesday

    Time Temperature Precipitation Wind Pressure Humidity
    00:00 +18°C° 0 mm 1 mps 661 mmHg 81%
    01:00 +18°C° 0 mm 1 mps 661 mmHg 73%
    02:00 +18°C° 0 mm 1 mps 661 mmHg 66%
    03:00 +18°C° 0 mm 1 mps 660 mmHg 59%
    04:00 +18°C° 0 mm 1 mps 661 mmHg 56%
    05:00 +18°C° 0 mm 1 mps 661 mmHg 52%
    06:00 +18°C° 0 mm 1 mps 662 mmHg 49%
    07:00 +22°C° 0 mm 1 mps 663 mmHg 43%
    08:00 +25°C° 0 mm 1 mps 664 mmHg 36%
    09:00 +29°C° 0 mm 1 mps 665 mmHg 30%
    10:00 +30°C° 0 mm 1 mps 665 mmHg 29%
    11:00 +31°C° 0 mm 1 mps 665 mmHg 29%
    12:00 +32°C° 0 mm 2 mps 665 mmHg 28%
    13:00 +31°C° 0 mm 2 mps 664 mmHg 33%
    14:00 +30°C° 0 mm 2 mps 663 mmHg 37%
    15:00 +29°C° 0 mm 2 mps 663 mmHg 41%
    16:00 +27°C° 0 mm 1 mps 662 mmHg 52%
    17:00 +24°C° 0 mm 1 mps 662 mmHg 63%
    18:00 +22°C° 0 mm 1 mps 662 mmHg 74%
    19:00 +21°C° 0 mm 1 mps 662 mmHg 75%
    20:00 +20°C° 0 mm 1 mps 662 mmHg 77%
    21:00 +20°C° 0 mm 1 mps 662 mmHg 78%
    22:00 +20°C° 0 mm 1 mps 662 mmHg 74%
    23:00 +19°C° 0 mm 1 mps 661 mmHg 71%
    Show more